| time (UTC) | temp F | wind direction | speed knots | gust knots | rain 1hr in | rain 24hr in | rain mn in | humidity % | barometer mb |
| 20260507003850 | 56 | 344 | 0.0 | 0.0 | 0.00 | 0.58 | 0.58 | 71 | 1015.1 |
| 20260507003344 | 56 | 356 | 0.0 | 0.9 | 0.00 | 0.58 | 0.58 | 69 | 1015.0 |
| 20260507002839 | 56 | 351 | 0.0 | 0.0 | 0.00 | 0.58 | 0.58 | 71 | 1014.8 |
| 20260507002335 | 56 | 347 | 0.0 | 0.0 | 0.00 | 0.58 | 0.58 | 67 | 1014.9 |
| 20260507001833 | 56 | 358 | 0.0 | 0.0 | 0.00 | 0.58 | 0.58 | 69 | 1014.4 |
| 20260507001329 | 56 | 346 | 0.0 | 0.9 | 0.00 | 0.58 | 0.58 | 74 | 1014.5 |
| 20260507000826 | 57 | 352 | 0.0 | 0.9 | 0.00 | 0.58 | 0.58 | 73 | 1014.4 |
| 20260507000321 | 57 | 11 | 0.0 | 1.7 | 0.00 | 0.58 | 0.58 | 69 | 1014.5 |
| 20260506235818 | 57 | 351 | 0.0 | 0.0 | 0.00 | 0.58 | 0.58 | 73 | 1014.3 |
| 20260506235314 | 57 | 98 | 0.0 | 0.0 | 0.00 | 0.58 | 0.58 | 71 | 1014.1 |
| 20260506234810 | 57 | 5 | 0.0 | 1.7 | 0.00 | 0.58 | 0.58 | 76 | 1014.4 |
| 20260506234308 | 57 | 347 | 0.0 | 0.0 | 0.00 | 0.58 | 0.58 | 76 | 1014.2 |
| 20260506233806 | 57 | 358 | 0.0 | 0.0 | 0.00 | 0.58 | 0.58 | 75 | 1014.2 |
| 20260506233256 | 57 | 358 | 0.0 | 0.0 | 0.00 | 0.58 | 0.58 | 76 | 1014.1 |
| 20260506232753 | 57 | 358 | 0.0 | 0.0 | 0.00 | 0.58 | 0.58 | 75 | 1014.0 |
| 20260506232248 | 58 | 358 | 0.0 | 0.0 | 0.00 | 0.58 | 0.58 | 75 | 1014.3 |
| 20260506231745 | 58 | 358 | 0.0 | 0.0 | 0.00 | 0.58 | 0.58 | 71 | 1014.1 |
| 20260506231244 | 58 | 354 | 0.0 | 0.0 | 0.00 | 0.58 | 0.58 | 72 | 1014.3 |
| 20260506230740 | 58 | 352 | 0.0 | 0.0 | 0.00 | 0.58 | 0.58 | 73 | 1014.6 |
| 20260506230237 | 58 | 352 | 0.0 | 0.0 | 0.00 | 0.58 | 0.58 | 72 | 1014.7 |
| 20260506225733 | 59 | 350 | 0.0 | 0.0 | 0.00 | 0.58 | 0.58 | 66 | 1014.5 |
| 20260506225231 | 59 | 354 | 0.0 | 0.0 | 0.00 | 0.58 | 0.58 | 69 | 1014.6 |
| 20260506224726 | 59 | 349 | 0.0 | 0.0 | 0.00 | 0.58 | 0.58 | 65 | 1014.5 |
| 20260506224224 | 59 | 325 | 0.0 | 0.9 | 0.00 | 0.58 | 0.58 | 62 | 1014.4 |
| 20260506223720 | 60 | 357 | 0.0 | 0.0 | 0.00 | 0.58 | 0.58 | 64 | 1014.5 |
| 20260506223215 | 60 | 340 | 0.0 | 1.7 | 0.00 | 0.58 | 0.58 | 60 | 1014.5 |
| 20260506222713 | 60 | 346 | 0.0 | 0.0 | 0.00 | 0.58 | 0.58 | 65 | 1014.4 |
| 20260506222208 | 60 | 355 | 0.0 | 0.9 | 0.00 | 0.58 | 0.58 | 64 | 1014.3 |
| 20260506221707 | 61 | 347 | 0.0 | 0.0 | 0.00 | 0.58 | 0.58 | 61 | 1014.3 |
| 20260506221204 | 61 | 346 | 0.0 | 0.0 | 0.00 | 0.58 | 0.58 | 59 | 1014.2 |
| 20260506220701 | 61 | 343 | 0.0 | 0.0 | 0.00 | 0.58 | 0.58 | 64 | 1014.0 |
| 20260506220156 | 61 | 357 | 0.0 | 0.0 | 0.00 | 0.58 | 0.58 | 61 | 1014.1 |
| 20260506215653 | 62 | 345 | 0.0 | 0.0 | 0.00 | 0.58 | 0.58 | 58 | 1014.0 |
| 20260506215148 | 61 | 323 | 0.0 | 0.0 | 0.00 | 0.58 | 0.58 | 59 | 1014.1 |
| 20260506214645 | 62 | 355 | 0.0 | 0.9 | 0.00 | 0.58 | 0.58 | 59 | 1013.9 |
| 20260506214143 | 62 | 346 | 0.0 | 0.9 | 0.00 | 0.58 | 0.58 | 55 | 1013.8 |
| 20260506213641 | 63 | 329 | 0.0 | 0.0 | 0.00 | 0.58 | 0.58 | 54 | 1013.7 |
| 20260506213138 | 62 | 353 | 0.0 | 1.7 | 0.00 | 0.58 | 0.58 | 53 | 1013.5 |
| 20260506212635 | 63 | 321 | 0.0 | 0.9 | 0.00 | 0.58 | 0.58 | 52 | 1013.4 |
| 20260506212130 | 63 | 11 | 0.0 | 1.7 | 0.00 | 0.58 | 0.58 | 50 | 1013.5 |
| 20260506211626 | 63 | 3 | 0.9 | 2.6 | 0.00 | 0.58 | 0.58 | 50 | 1013.9 |
| 20260506211123 | 64 | 343 | 0.0 | 1.7 | 0.00 | 0.58 | 0.58 | 59 | 1013.7 |
| 20260506210620 | 64 | 55 | 0.0 | 0.9 | 0.00 | 0.58 | 0.58 | 54 | 1013.8 |
| 20260506210116 | 63 | 340 | 0.0 | 0.0 | 0.00 | 0.58 | 0.58 | 60 | 1013.7 |
| 20260506205613 | 63 | 337 | 0.0 | 0.9 | 0.00 | 0.58 | 0.58 | 58 | 1013.5 |
| 20260506205108 | 63 | 339 | 0.0 | 2.6 | 0.00 | 0.58 | 0.58 | 58 | 1013.7 |
| 20260506204606 | 62 | 335 | 0.0 | 0.0 | 0.00 | 0.58 | 0.58 | 54 | 1013.7 |
| 20260506204103 | 63 | 304 | 0.9 | 1.7 | 0.00 | 0.58 | 0.58 | 60 | 1013.7 |
| 20260506203601 | 63 | 353 | 0.0 | 0.0 | 0.00 | 0.58 | 0.58 | 59 | 1013.5 |
| 20260506203057 | 62 | 356 | 0.0 | 0.9 | 0.00 | 0.58 | 0.58 | 59 | 1013.5 |
| 20260506202555 | 63 | 4 | 1.7 | 2.6 | 0.00 | 0.58 | 0.58 | 56 | 1013.4 |
| 20260506202051 | 63 | 322 | 0.0 | 1.7 | 0.00 | 0.58 | 0.58 | 56 | 1013.6 |
| 20260506201549 | 64 | 346 | 1.7 | 2.6 | 0.00 | 0.58 | 0.58 | 57 | 1013.4 |
| 20260506201045 | 64 | 309 | 0.9 | 1.7 | 0.00 | 0.58 | 0.58 | 56 | 1013.4 |
| 20260506200541 | 64 | 269 | 0.9 | 1.7 | 0.00 | 0.58 | 0.58 | 56 | 1013.3 |
| 20260506200038 | 64 | 318 | 0.0 | 0.9 | 0.00 | 0.58 | 0.58 | 56 | 1013.3 |
| 20260506195535 | 65 | 8 | 1.7 | 2.6 | 0.00 | 0.58 | 0.58 | 58 | 1013.0 |
| 20260506195031 | 64 | 349 | 0.0 | 0.9 | 0.00 | 0.58 | 0.58 | 58 | 1012.9 |
| 20260506194529 | 64 | 242 | 0.9 | 7.0 | 0.00 | 0.58 | 0.58 | 61 | 1013.2 |
| 20260506194026 | 64 | 301 | 0.9 | 2.6 | 0.00 | 0.58 | 0.58 | 61 | 1013.3 |
| 20260506193523 | 64 | 246 | 0.9 | 5.2 | 0.00 | 0.58 | 0.58 | 61 | 1013.2 |
| 20260506193020 | 64 | 330 | 0.0 | 0.9 | 0.00 | 0.58 | 0.58 | 63 | 1013.3 |
| 20260506192517 | 64 | 299 | 0.9 | 1.7 | 0.00 | 0.58 | 0.58 | 58 | 1013.2 |
| 20260506192013 | 65 | 260 | 0.9 | 0.9 | 0.00 | 0.58 | 0.58 | 55 | 1013.4 |
| 20260506191510 | 65 | 314 | 0.0 | 1.7 | 0.00 | 0.58 | 0.58 | 59 | 1013.3 |
| 20260506191006 | 64 | 276 | 0.0 | 1.7 | 0.00 | 0.58 | 0.58 | 60 | 1013.5 |
| 20260506190503 | 64 | 348 | 0.0 | 3.5 | 0.00 | 0.58 | 0.58 | 61 | 1013.4 |
| 20260506185959 | 65 | 313 | 0.9 | 2.6 | 0.00 | 0.58 | 0.58 | 60 | 1013.6 |
| 20260506185457 | 64 | 329 | 0.9 | 0.9 | 0.00 | 0.58 | 0.58 | 61 | 1013.4 |
| 20260506184953 | 64 | 3 | 0.9 | 1.7 | 0.00 | 0.58 | 0.58 | 65 | 1013.5 |
| 20260506184451 | 64 | 289 | 0.9 | 1.7 | 0.00 | 0.58 | 0.58 | 60 | 1013.5 |
| 20260506183948 | 64 | 0 | 0.0 | 0.9 | 0.00 | 0.58 | 0.58 | 60 | 1013.5 |
| 20260506183443 | 62 | 9 | 0.0 | 0.9 | 0.00 | 0.58 | 0.58 | 70 | 1013.4 |
| 20260506182941 | 63 | 157 | 1.7 | 2.6 | 0.00 | 0.58 | 0.58 | 66 | 1013.4 |
| 20260506182438 | 62 | 146 | 0.9 | 1.7 | 0.00 | 0.58 | 0.58 | 65 | 1013.6 |
| 20260506181935 | 62 | 353 | 0.0 | 0.0 | 0.00 | 0.58 | 0.58 | 68 | 1013.4 |
| 20260506181433 | 61 | 330 | 0.0 | 0.9 | 0.00 | 0.58 | 0.58 | 67 | 1013.7 |
| 20260506180929 | 61 | 335 | 0.0 | 2.6 | 0.00 | 0.58 | 0.58 | 70 | 1013.8 |
| 20260506180425 | 61 | 314 | 0.0 | 1.7 | 0.00 | 0.58 | 0.58 | 72 | 1013.7 |
| 20260506175918 | 61 | 91 | 0.9 | 0.9 | 0.00 | 0.58 | 0.58 | 72 | 1013.6 |
| 20260506175414 | 61 | 265 | 0.0 | 0.9 | 0.00 | 0.58 | 0.58 | 75 | 1013.7 |
| 20260506174911 | 61 | 149 | 0.9 | 0.9 | 0.00 | 0.58 | 0.58 | 73 | 1013.6 |
| 20260506174409 | 60 | 322 | 0.0 | 1.7 | 0.00 | 0.58 | 0.58 | 73 | 1013.8 |
| 20260506173906 | 60 | 268 | 0.9 | 0.9 | 0.00 | 0.58 | 0.58 | 74 | 1013.9 |
| 20260506173402 | 59 | 351 | 0.9 | 2.6 | 0.00 | 0.58 | 0.58 | 71 | 1013.8 |
| 20260506172859 | 60 | 318 | 0.0 | 1.7 | 0.00 | 0.58 | 0.58 | 71 | 1014.1 |
| 20260506172355 | 61 | 353 | 0.0 | 2.6 | 0.00 | 0.58 | 0.58 | 76 | 1014.1 |
| 20260506171853 | 60 | 31 | 0.0 | 1.7 | 0.00 | 0.58 | 0.58 | 75 | 1013.9 |
| 20260506171350 | 60 | 337 | 0.9 | 2.6 | 0.00 | 0.58 | 0.58 | 73 | 1013.8 |
| 20260506170847 | 59 | 277 | 0.9 | 2.6 | 0.00 | 0.58 | 0.58 | 75 | 1013.9 |
| 20260506170344 | 60 | 216 | 0.9 | 1.7 | 0.00 | 0.58 | 0.58 | 74 | 1013.9 |
| 20260506165843 | 60 | 257 | 0.9 | 1.7 | 0.00 | 0.58 | 0.58 | 75 | 1014.0 |
| 20260506165340 | 59 | 343 | 0.0 | 1.7 | 0.00 | 0.58 | 0.58 | 80 | 1014.0 |
| 20260506164831 | 59 | 309 | 0.0 | 1.7 | 0.00 | 0.58 | 0.58 | 78 | 1013.8 |
| 20260506164327 | 59 | 204 | 1.7 | 2.6 | 0.00 | 0.58 | 0.58 | 77 | 1013.5 |
| 20260506163826 | 59 | 257 | 0.9 | 0.9 | 0.00 | 0.58 | 0.58 | 77 | 1013.6 |
| 20260506163325 | 59 | 249 | 1.7 | 2.6 | 0.00 | 0.58 | 0.58 | 77 | 1014.0 |
| 20260506162821 | 60 | 306 | 0.0 | 1.7 | 0.00 | 0.58 | 0.58 | 74 | 1013.7 |
| 20260506162319 | 59 | 335 | 0.0 | 0.9 | 0.00 | 0.58 | 0.58 | 83 | 1013.9 |
| 20260506161816 | 58 | 174 | 2.6 | 2.6 | 0.00 | 0.58 | 0.58 | 80 | 1014.1 |
| 20260506161314 | 57 | 336 | 1.7 | 3.5 | 0.00 | 0.58 | 0.58 | 85 | 1013.9 |
| 20260506160806 | 56 | 338 | 0.0 | 5.2 | 0.00 | 0.58 | 0.58 | 86 | 1014.1 |
| 20260506160302 | 56 | 339 | 0.0 | 0.0 | 0.00 | 0.58 | 0.58 | 86 | 1014.1 |
| 20260506155801 | 57 | 56 | 0.0 | 0.9 | 0.00 | 0.58 | 0.58 | 83 | 1014.0 |
| 20260506155257 | 55 | 305 | 0.0 | 0.9 | 0.00 | 0.58 | 0.58 | 89 | 1013.9 |
| 20260506153404 | 54 | 9 | 0.0 | 2.6 | 0.00 | 0.58 | 0.58 | 89 | 1013.8 |
| 20260506152901 | 54 | 22 | 0.0 | 0.9 | 0.00 | 0.58 | 0.58 | 91 | 1013.5 |
| 20260506152358 | 53 | 329 | 0.0 | 1.7 | 0.00 | 0.58 | 0.58 | 90 | 1013.5 |
| 20260506151856 | 53 | 321 | 0.0 | 0.0 | 0.00 | 0.58 | 0.58 | 93 | 1013.4 |
| 20260506151353 | 52 | 270 | 0.9 | 1.7 | 0.00 | 0.58 | 0.58 | 91 | 1013.3 |
| 20260506150850 | 52 | 239 | 0.9 | 0.9 | 0.00 | 0.58 | 0.58 | 95 | 1013.3 |
| 20260506150346 | 52 | 328 | 0.0 | 0.9 | 0.00 | 0.58 | 0.58 | 96 | 1013.4 |
| 20260506145843 | 51 | 342 | 0.0 | 0.9 | 0.00 | 0.58 | 0.58 | 96 | 1013.5 |
| 20260506145339 | 51 | 332 | 0.0 | 0.9 | 0.00 | 0.58 | 0.58 | 98 | 1013.4 |
| 20260506144837 | 51 | 343 | 0.0 | 0.9 | 0.00 | 0.58 | 0.58 | 98 | 1013.2 |
| 20260506144334 | 51 | 256 | 1.7 | 2.6 | 0.00 | 0.58 | 0.58 | 98 | 1013.2 |
| 20260506143832 | 51 | 329 | 0.0 | 0.9 | 0.00 | 0.58 | 0.58 | 98 | 1013.0 |
| 20260506143329 | 51 | 316 | 0.0 | 0.0 | 0.00 | 0.58 | 0.58 | 97 | 1013.1 |
| 20260506142827 | 51 | 280 | 0.9 | 2.6 | 0.00 | 0.58 | 0.58 | 97 | 1012.7 |
| 20260506142325 | 51 | 197 | 0.9 | 0.9 | 0.00 | 0.58 | 0.58 | 99 | 1012.7 |
| 20260506141823 | 50 | 346 | 0.0 | 1.7 | 0.00 | 0.58 | 0.58 | 99 | 1012.7 |
| 20260506141321 | 50 | 334 | 0.0 | 1.7 | 0.00 | 0.58 | 0.58 | 99 | 1012.4 |
| 20260506140819 | 50 | 232 | 0.0 | 0.9 | 0.00 | 0.58 | 0.58 | 99 | 1012.6 |
| 20260506140315 | 50 | 339 | 0.0 | 0.9 | 0.00 | 0.58 | 0.58 | 99 | 1012.6 |
| 20260506135812 | 50 | 253 | 0.9 | 0.9 | 0.00 | 0.58 | 0.58 | 99 | 1012.4 |
| 20260506135308 | 50 | 329 | 0.0 | 0.9 | 0.00 | 0.58 | 0.58 | 99 | 1012.6 |
| 20260506134805 | 50 | 338 | 0.0 | 0.0 | 0.00 | 0.58 | 0.58 | 99 | 1012.6 |
| 20260506134301 | 50 | 333 | 0.0 | 0.0 | 0.00 | 0.58 | 0.58 | 99 | 1012.2 |
| 20260506133758 | 50 | 324 | 0.0 | 0.9 | 0.00 | 0.58 | 0.58 | 99 | 1011.8 |
| 20260506133255 | 50 | 342 | 0.0 | 0.0 | 0.00 | 0.58 | 0.58 | 99 | 1011.9 |
| 20260506132752 | 50 | 328 | 0.0 | 0.9 | 0.00 | 0.58 | 0.58 | 99 | 1012.0 |
| 20260506132249 | 50 | 283 | 0.9 | 0.9 | 0.00 | 0.58 | 0.58 | 99 | 1011.6 |
| 20260506131748 | 50 | 310 | 0.0 | 1.7 | 0.00 | 0.58 | 0.58 | 99 | 1011.9 |
| 20260506131243 | 50 | 0 | 0.9 | 1.7 | 0.07 | 0.58 | 0.58 | 99 | 1011.7 |
| 20260506130740 | 50 | 350 | 0.0 | 0.9 | 0.07 | 0.58 | 0.58 | 99 | 1011.7 |
| 20260506130237 | 50 | 354 | 0.0 | 1.7 | 0.05 | 0.57 | 0.57 | 99 | 1011.8 |
| 20260506125735 | 51 | 319 | 0.0 | 1.7 | 0.05 | 0.57 | 0.57 | 99 | 1011.6 |
| 20260506125233 | 51 | 352 | 0.9 | 0.9 | 0.07 | 0.56 | 0.56 | 99 | 1011.6 |
| 20260506124731 | 51 | 334 | 0.0 | 0.9 | 0.07 | 0.56 | 0.56 | 99 | 1011.5 |
| 20260506124228 | 51 | 262 | 1.7 | 2.6 | 0.00 | 0.55 | 0.55 | 99 | 1011.3 |
| 20260506123725 | 52 | 301 | 0.0 | 0.9 | 0.00 | 0.55 | 0.55 | 99 | 1011.1 |
| 20260506123224 | 53 | 19 | 0.9 | 0.9 | 0.00 | 0.55 | 0.55 | 99 | 1010.9 |
| 20260506122720 | 53 | 358 | 0.0 | 0.0 | 0.00 | 0.55 | 0.55 | 99 | 1010.4 |
| 20260506122218 | 54 | 314 | 0.0 | 0.0 | 0.00 | 0.55 | 0.55 | 99 | 1010.3 |
| 20260506121716 | 54 | 343 | 0.0 | 0.9 | 0.00 | 0.55 | 0.55 | 99 | 1010.0 |
| 20260506121212 | 54 | 339 | 0.0 | 0.0 | 0.00 | 0.55 | 0.55 | 99 | 1010.0 |
| 20260506120710 | 54 | 345 | 0.0 | 0.9 | 0.00 | 0.55 | 0.55 | 99 | 1009.9 |
| 20260506120207 | 54 | 321 | 0.0 | 0.0 | 0.00 | 0.55 | 0.55 | 99 | 1009.9 |
| 20260506115705 | 54 | 1 | 0.0 | 0.0 | 0.00 | 0.55 | 0.55 | 99 | 1009.8 |
| 20260506115203 | 54 | 351 | 0.0 | 0.0 | 0.00 | 0.55 | 0.55 | 99 | 1009.5 |
| 20260506114700 | 55 | 345 | 0.0 | 0.9 | 0.00 | 0.55 | 0.55 | 99 | 1009.7 |
| 20260506114158 | 55 | 350 | 0.0 | 0.0 | 0.00 | 0.55 | 0.55 | 99 | 1009.6 |
| 20260506113656 | 55 | 342 | 0.0 | 0.0 | 0.00 | 0.55 | 0.55 | 99 | 1009.3 |
| 20260506113153 | 55 | 356 | 0.0 | 0.0 | 0.00 | 0.55 | 0.55 | 99 | 1009.3 |
| 20260506112649 | 56 | 324 | 0.0 | 0.9 | 0.00 | 0.55 | 0.55 | 99 | 1009.3 |
| 20260506112147 | 56 | 358 | 0.0 | 0.0 | 0.05 | 0.55 | 0.55 | 99 | 1009.1 |
| 20260506111644 | 57 | 14 | 1.7 | 2.6 | 0.05 | 0.55 | 0.55 | 99 | 1009.3 |
| 20260506111142 | 58 | 325 | 0.9 | 1.7 | 0.00 | 0.54 | 0.54 | 99 | 1009.1 |
| 20260506110639 | 57 | 7 | 0.0 | 0.0 | 0.00 | 0.54 | 0.54 | 99 | 1009.0 |
| 20260506110137 | 57 | 9 | 0.0 | 0.0 | 0.00 | 0.54 | 0.54 | 99 | 1008.9 |
| 20260506105633 | 57 | 11 | 0.0 | 0.0 | 0.00 | 0.54 | 0.54 | 99 | 1008.7 |
| 20260506105130 | 57 | 13 | 0.0 | 0.0 | 0.07 | 0.54 | 0.54 | 99 | 1008.8 |
| 20260506104628 | 57 | 20 | 0.0 | 0.0 | 0.07 | 0.54 | 0.54 | 99 | 1008.6 |
| 20260506104125 | 57 | 12 | 0.0 | 0.0 | 0.00 | 0.53 | 0.53 | 99 | 1008.6 |
| 20260506103623 | 57 | 359 | 0.0 | 0.0 | 0.00 | 0.53 | 0.53 | 99 | 1008.7 |
| 20260506103119 | 57 | 10 | 0.0 | 0.0 | 0.00 | 0.53 | 0.53 | 99 | 1008.3 |
| 20260506102618 | 57 | 349 | 0.0 | 0.0 | 0.00 | 0.53 | 0.53 | 99 | 1007.8 |
| 20260506102115 | 57 | 7 | 0.9 | 0.9 | 0.00 | 0.53 | 0.53 | 99 | 1008.1 |
| 20260506101611 | 57 | 350 | 0.0 | 0.9 | 0.00 | 0.53 | 0.53 | 99 | 1008.1 |
| 20260506101108 | 57 | 3 | 0.0 | 0.9 | 0.00 | 0.53 | 0.53 | 99 | 1008.2 |
| 20260506100607 | 57 | 28 | 0.9 | 0.9 | 0.00 | 0.53 | 0.53 | 99 | 1008.4 |
| 20260506100104 | 57 | 20 | 0.0 | 0.9 | 0.00 | 0.53 | 0.53 | 99 | 1008.5 |
| 20260506095603 | 57 | 18 | 0.0 | 0.0 | 0.00 | 0.53 | 0.53 | 99 | 1008.2 |
| 20260506095059 | 57 | 18 | 0.0 | 0.0 | 0.00 | 0.53 | 0.53 | 99 | 1008.1 |
| 20260506094557 | 57 | 16 | 0.0 | 0.0 | 0.00 | 0.53 | 0.53 | 99 | 1008.2 |
| 20260506094054 | 57 | 13 | 0.0 | 0.0 | 0.00 | 0.53 | 0.53 | 99 | 1008.3 |
| 20260506093552 | 57 | 6 | 0.0 | 0.0 | 0.00 | 0.53 | 0.53 | 99 | 1008.3 |
| 20260506093049 | 57 | 2 | 0.0 | 0.9 | 0.00 | 0.53 | 0.53 | 99 | 1008.4 |
| 20260506092548 | 57 | 17 | 0.0 | 0.0 | 0.00 | 0.53 | 0.53 | 99 | 1008.2 |
| 20260506092044 | 57 | 16 | 0.0 | 0.0 | 0.00 | 0.53 | 0.53 | 99 | 1008.2 |
| 20260506091542 | 57 | 7 | 0.0 | 0.0 | 0.00 | 0.53 | 0.53 | 99 | 1008.4 |
| 20260506091039 | 57 | 202 | 0.0 | 1.7 | 0.05 | 0.53 | 0.53 | 99 | 1008.4 |
| 20260506090537 | 57 | 24 | 0.0 | 0.0 | 0.12 | 0.53 | 0.53 | 99 | 1008.2 |
| 20260506090033 | 57 | 29 | 0.0 | 0.9 | 0.14 | 0.52 | 0.52 | 99 | 1008.4 |
| 20260506085530 | 57 | 11 | 0.0 | 0.0 | 0.12 | 0.51 | 0.51 | 99 | 1008.6 |
| 20260506085026 | 57 | 38 | 0.0 | 0.9 | 0.24 | 0.50 | 0.50 | 99 | 1008.5 |
| 20260506084524 | 57 | 3 | 0.0 | 0.0 | 0.28 | 0.48 | 0.48 | 99 | 1008.5 |
| 20260506084020 | 57 | 28 | 0.0 | 0.0 | 0.19 | 0.45 | 0.45 | 99 | 1008.7 |
| 20260506083517 | 57 | 26 | 0.0 | 0.0 | 0.07 | 0.43 | 0.43 | 99 | 1008.3 |
| 20260506083014 | 57 | 25 | 0.0 | 0.9 | 0.05 | 0.42 | 0.42 | 99 | 1008.5 |
| 20260506082511 | 57 | 17 | 0.0 | 0.0 | 0.12 | 0.41 | 0.41 | 99 | 1008.3 |
| 20260506082007 | 57 | 7 | 0.0 | 0.9 | 0.31 | 0.41 | 0.41 | 99 | 1008.4 |
| 20260506081505 | 58 | 7 | 0.0 | 1.7 | 0.31 | 0.39 | 0.39 | 99 | 1008.4 |
| 20260506081003 | 58 | 13 | 0.0 | 0.0 | 0.24 | 0.36 | 0.36 | 99 | 1008.4 |
| 20260506080459 | 58 | 14 | 0.0 | 0.0 | 0.31 | 0.34 | 0.34 | 99 | 1008.7 |
| 20260506073443 | 58 | 16 | 0.0 | 0.0 | 0.24 | 0.25 | 0.25 | 99 | 1008.6 |
| 20260506072940 | 58 | 19 | 0.0 | 0.9 | 0.19 | 0.23 | 0.23 | 99 | 1008.6 |
| 20260506072437 | 58 | 36 | 0.9 | 0.9 | 0.12 | 0.21 | 0.21 | 99 | 1008.6 |
| 20260506071935 | 58 | 17 | 0.0 | 0.0 | 0.12 | 0.20 | 0.20 | 99 | 1008.6 |
| 20260506071433 | 58 | 16 | 0.0 | 0.0 | 0.12 | 0.19 | 0.19 | 99 | 1008.9 |
| 20260506070930 | 58 | 18 | 0.0 | 0.0 | 0.12 | 0.18 | 0.18 | 99 | 1008.6 |
| 20260506070426 | 58 | 20 | 0.0 | 0.0 | 0.12 | 0.17 | 0.17 | 99 | 1008.7 |
| 20260506062405 | 59 | 356 | 0.0 | 0.0 | 0.05 | 0.05 | 0.05 | 99 | 1008.7 |
| 20260506061900 | 59 | 356 | 0.0 | 0.0 | 0.05 | 0.05 | 0.05 | 99 | 1009.0 |
| 20260506061356 | 59 | 5 | 0.0 | 0.0 | 0.00 | 0.04 | 0.04 | 99 | 1008.5 |
| 20260506060855 | 59 | 5 | 0.0 | 0.0 | 0.00 | 0.04 | 0.04 | 99 | 1008.4 |
| 20260506060352 | 59 | 5 | 0.0 | 0.0 | 0.00 | 0.04 | 0.04 | 99 | 1008.5 |
| 20260506051325 | 59 | 332 | 0.0 | 0.9 | 0.05 | 0.03 | 0.03 | 99 | 1009.3 |
| 20260506050822 | 59 | 352 | 0.0 | 0.0 | 0.05 | 0.03 | 0.03 | 99 | 1009.2 |
| 20260506050320 | 59 | 352 | 0.0 | 0.0 | 0.07 | 0.02 | 0.02 | 99 | 1009.3 |
| 20260506044809 | 59 | 34 | 0.0 | 0.9 | 0.00 | 0.01 | 0.01 | 99 | 1009.5 |
| 20260506044307 | 59 | 343 | 0.0 | 0.0 | 0.00 | 0.01 | 0.01 | 99 | 1009.6 |
| 20260506043804 | 59 | 359 | 0.0 | 0.0 | 0.00 | 0.01 | 0.01 | 99 | 1009.8 |
| 20260506043301 | 59 | 359 | 0.0 | 0.0 | 0.00 | 0.01 | 0.01 | 99 | 1009.8 |
| 20260506042801 | 59 | 359 | 0.0 | 0.0 | 0.00 | 0.01 | 0.01 | 99 | 1009.8 |
| 20260506042259 | 59 | 350 | 0.0 | 0.0 | 0.00 | 0.01 | 0.01 | 99 | 1009.9 |
| 20260506041757 | 59 | 350 | 0.0 | 0.0 | 0.07 | 0.01 | 0.01 | 99 | 1010.5 |
| 20260506041253 | 59 | 348 | 0.0 | 0.0 | 0.00 | 0.00 | 0.00 | 99 | 1010.4 |
| 20260506040751 | 59 | 346 | 0.0 | 0.0 | 0.00 | 0.00 | 0.00 | 99 | 1010.3 |
| 20260506040248 | 59 | 345 | 0.0 | 0.0 | 0.05 | 0.00 | 0.00 | 99 | 1010.7 |
| 20260506035745 | 59 | 355 | 0.0 | 0.9 | 0.05 | 0.04 | 0.04 | 99 | 1010.3 |
| 20260506035241 | 59 | 355 | 0.0 | 0.0 | 0.07 | 0.03 | 0.03 | 99 | 1010.3 |
| 20260506034738 | 59 | 355 | 0.0 | 0.0 | 0.07 | 0.03 | 0.03 | 99 | 1010.5 |
| 20260506034236 | 59 | 355 | 0.0 | 0.0 | 0.00 | 0.02 | 0.02 | 99 | 1010.2 |
| 20260506033733 | 59 | 355 | 0.0 | 0.0 | 0.00 | 0.02 | 0.02 | 99 | 1010.1 |
| 20260506033230 | 59 | 355 | 0.0 | 0.0 | 0.00 | 0.02 | 0.02 | 99 | 1010.0 |
| 20260506032727 | 59 | 355 | 0.0 | 0.0 | 0.00 | 0.02 | 0.02 | 99 | 1010.0 |
| 20260506032224 | 59 | 355 | 0.0 | 0.0 | 0.00 | 0.02 | 0.02 | 99 | 1010.0 |
| 20260506031720 | 59 | 355 | 0.0 | 0.0 | 0.00 | 0.02 | 0.02 | 99 | 1009.9 |
| 20260506031218 | 59 | 355 | 0.0 | 0.0 | 0.00 | 0.02 | 0.02 | 99 | 1010.1 |
| 20260506030716 | 59 | 355 | 0.0 | 0.0 | 0.00 | 0.02 | 0.02 | 99 | 1010.1 |
| 20260506030213 | 59 | 355 | 0.0 | 0.0 | 0.00 | 0.02 | 0.02 | 99 | 1009.8 |
| 20260506025710 | 60 | 355 | 0.0 | 0.0 | 0.00 | 0.02 | 0.02 | 99 | 1010.0 |
| 20260506025206 | 60 | 355 | 0.0 | 0.0 | 0.00 | 0.02 | 0.02 | 99 | 1009.9 |
| 20260506024703 | 60 | 355 | 0.0 | 0.0 | 0.00 | 0.02 | 0.02 | 98 | 1009.8 |
| 20260506024159 | 60 | 17 | 0.0 | 0.0 | 0.00 | 0.02 | 0.02 | 98 | 1010.1 |
| 20260506023656 | 60 | 358 | 0.0 | 0.0 | 0.00 | 0.02 | 0.02 | 98 | 1010.1 |
| 20260506023154 | 60 | 3 | 0.0 | 0.0 | 0.00 | 0.02 | 0.02 | 97 | 1010.1 |
| 20260506022650 | 60 | 359 | 0.0 | 0.0 | 0.05 | 0.02 | 0.02 | 97 | 1010.0 |
| 20260506022148 | 60 | 3 | 0.0 | 0.0 | 0.05 | 0.02 | 0.02 | 97 | 1010.0 |
| 20260506021646 | 60 | 353 | 0.0 | 0.0 | 0.00 | 0.01 | 0.01 | 96 | 1010.1 |
| 20260506021142 | 60 | 0 | 0.0 | 0.0 | 0.00 | 0.01 | 0.01 | 95 | 1009.9 |
| 20260506020639 | 60 | 1 | 0.0 | 0.0 | 0.00 | 0.01 | 0.01 | 94 | 1009.8 |
| 20260506020137 | 61 | 0 | 0.0 | 0.0 | 0.00 | 0.01 | 0.01 | 93 | 1009.8 |
| 20260506015634 | 61 | 0 | 0.0 | 0.0 | 0.07 | 0.01 | 0.01 | 92 | 1009.9 |
| 20260506015131 | 61 | 0 | 0.0 | 0.0 | 0.00 | 0.00 | 0.00 | 90 | 1010.0 |
| 20260506014629 | 62 | 2 | 0.0 | 0.0 | 0.00 | 0.00 | 0.00 | 87 | 1010.1 |
| 20260506014124 | 62 | 3 | 0.0 | 0.0 | 0.00 | 0.00 | 0.00 | 86 | 1010.0 |
| 20260506013622 | 63 | 358 | 0.0 | 0.0 | 0.00 | 0.00 | 0.00 | 82 | 1010.1 |
| 20260506013119 | 63 | 358 | 0.0 | 0.0 | 0.00 | 0.00 | 0.00 | 81 | 1010.4 |
| 20260506012615 | 64 | 358 | 0.0 | 0.0 | 0.00 | 0.00 | 0.00 | 79 | 1010.0 |
| 20260506012112 | 65 | 358 | 0.0 | 0.0 | 0.00 | 0.00 | 0.00 | 76 | 1010.1 |
| 20260506011609 | 66 | 358 | 0.0 | 0.0 | 0.00 | 0.00 | 0.00 | 74 | 1009.9 |
| 20260506011105 | 66 | 358 | 0.0 | 0.0 | 0.00 | 0.00 | 0.00 | 72 | 1010.1 |
| 20260506010559 | 66 | 355 | 0.0 | 0.0 | 0.00 | 0.00 | 0.00 | 69 | 1010.0 |
| 20260506010055 | 67 | 352 | 0.0 | 0.0 | 0.00 | 0.00 | 0.00 | 68 | 1009.9 |
| 20260506005553 | 67 | 354 | 0.0 | 0.0 | 0.00 | 0.00 | 0.00 | 68 | 1009.8 |
| 20260506005048 | 68 | 359 | 0.0 | 0.0 | 0.00 | 0.00 | 0.00 | 64 | 1010.0 |
| 20260506004546 | 68 | 16 | 0.0 | 0.9 | 0.00 | 0.00 | 0.00 | 61 | 1010.2 |